{"data":{"norad_id":65686,"intl_designator":"2025-212L","name":"STARLINK-35137","alt_names":[],"object_type":"PAYLOAD","status":"ACTIVE","operator":null,"country":"US","launch_date":"2025-09-21","launch_site_code":"AFETR","launch_vehicle":null,"mission":null,"orbit_class":"UNKNOWN","rcs_meters":null,"size_class":null,"mass_kg":null,"dimensions":null,"purposes":["comms"],"wikipedia_slug":null,"has_3d_model":false,"image_url":null,"decayed_at":null,"tle_current":{"epoch":"2026-09-20T22:17:46.426848Z","epoch_age_seconds":71484,"freshness":"FRESH","line1":"1 65686U 25212L   26263.92900957  .00017158  00000+0  51784-3 0  9992","line2":"2 65686  53.1610 145.4105 0002245  83.3811 276.7448 15.34396656 57273","mean_motion":15.34396656,"eccentricity":0.0002245,"inclination_deg":53.161,"raan_deg":145.4105,"arg_perigee_deg":83.3811,"mean_anomaly_deg":276.7448,"bstar":0.00051784,"rev_number":5727,"period_min":93.84796260922,"perigee_km":461.17740843262,"apogee_km":464.24895016312,"semimajor_km":6840.8501792979,"source":"CELESTRAK","updated_at":"2026-09-21T09:00:35.686916Z"}}}